,,,PA_Meas_PMT16A,,PR_Meas_QMR101_102,,RH_Meas_QMH101,,SR_Meas_QMS101,,TA_Meas_QMH101,,GenWind,,GenWind,
date,time,status,PA,status,PR,status,RH,status,SR,status,TA,status,DirAvg,status,SpdAvg,
2012-05-13, 00:00:04,VALID,999.116,VALID,0,VALID,94.3174,VALID,0,VALID,24.4818,VALID,137,VALID,0.905078,
2012-05-13, 00:01:04,VALID,999.101,VALID,0,VALID,94.264,VALID,0,VALID,24.4604,VALID,135,VALID,0.837891,
2012-05-13, 00:02:04,VALID,999.093,VALID,0,VALID,94.3021,VALID,0,VALID,24.4409,VALID,137,VALID,0.767187,
2012-05-13, 00:03:04,VALID,999.098,VALID,0,VALID,94.2945,VALID,0,VALID,24.4818,VALID,144,VALID,0.980859,
2012-05-13, 00:04:04,VALID,999.094,VALID,0,VALID,94.3021,VALID,0,VALID,24.4818,VALID,158,VALID,1.06289,
2012-05-13, 00:05:04,VALID,999.126,VALID,0,VALID,94.2411,VALID,0,VALID,24.4623,VALID,165,VALID,0.937891,
2012-05-13, 00:06:04,VALID,999.155,VALID,0,VALID,94.264,VALID,0,VALID,24.4604,VALID,164,VALID,1.0168,
2012-05-13, 00:07:04,VALID,999.144,VALID,0,VALID,94.2105,VALID,0,VALID,24.4818,VALID,164,VALID,0.656641,
2012-05-13, 00:08:04,VALID,999.189,VALID,0,VALID,94.325,VALID,0,VALID,24.48,VALID,166,VALID,0.332031,
2012-05-13, 00:09:04,VALID,999.172,VALID,0,VALID,94.325,VALID,0,VALID,24.5013,VALID,166,VALID,0.499219,
2012-05-13, 00:10:04,VALID,999.201,VALID,0,VALID,94.4165,VALID,0,VALID,24.5209,VALID,286,VALID,0.766406,
2012-05-13, 00:11:04,VALID,999.224,VALID,0,VALID,94.4471,VALID,0,VALID,24.5013,VALID,289,VALID,1.06914,
2012-05-13, 00:12:04,VALID,999.24,VALID,0,VALID,94.4013,VALID,0,VALID,24.4818,VALID,292,VALID,1.17695,
2012-05-13, 00:13:04,VALID,999.233,VALID,0,VALID,94.4089,VALID,0,VALID,24.4818,VALID,280,VALID,1.02148,
2012-05-13, 00:14:04,VALID,999.221,VALID,0,VALID,94.4852,VALID,0,VALID,24.5013,VALID,279,VALID,0.772656,
2012-05-13, 00:15:04,VALID,999.258,VALID,0,VALID,94.5462,VALID,0,VALID,24.4818,VALID,271,VALID,1.13242,
2012-05-13, 00:16:04,VALID,999.254,VALID,0,VALID,94.592,VALID,0,VALID,24.5013,VALID,236,VALID,1.0832,
2012-05-13, 00:17:04,VALID,999.254,VALID,0,VALID,94.6607,VALID,0,VALID,24.5209,VALID,254,VALID,1.17148,
2012-05-13, 00:18:04,VALID,999.196,VALID,0,VALID,94.7217,VALID,0,VALID,24.5404,VALID,258,VALID,1.38555,
2012-05-13, 00:19:04,VALID,999.151,VALID,0,VALID,94.7904,VALID,0,VALID,24.5599,VALID,252,VALID,0.980859,
2012-05-13, 00:20:04,VALID,999.098,VALID,0,VALID,94.8209,VALID,0,VALID,24.5404,VALID,259,VALID,1.00664,
2012-05-13, 00:21:04,VALID,999.059,VALID,0,VALID,94.8667,VALID,0,VALID,24.5385,VALID,239,VALID,1.02734,
2012-05-13, 00:22:04,VALID,999.009,VALID,0,VALID,94.9048,VALID,0,VALID,24.5385,VALID,243,VALID,0.698828,
2012-05-13, 00:23:04,VALID,998.964,VALID,0,VALID,94.9125,VALID,0,VALID,24.5599,VALID,229,VALID,0.507422,
2012-05-13, 00:24:04,VALID,998.968,VALID,0,VALID,94.9277,VALID,0,VALID,24.5599,VALID,271,VALID,0.687891,
2012-05-13, 00:25:04,VALID,998.974,VALID,0,VALID,94.9277,VALID,0,VALID,24.5385,VALID,281,VALID,0.797266,
2012-05-13, 00:26:04,VALID,999.03,VALID,0,VALID,94.9583,VALID,0,VALID,24.5599,VALID,277,VALID,0.771094,
2012-05-13, 00:27:04,VALID,999.072,VALID,0,VALID,94.9811,VALID,0,VALID,24.519,VALID,274,VALID,0.642578,
2012-05-13, 00:28:04,VALID,999.155,VALID,0,VALID,95.0193,VALID,0,VALID,24.5599,VALID,274,VALID,0.616797,
2012-05-13, 00:29:04,VALID,999.192,VALID,0,VALID,95.0574,VALID,0,VALID,24.5385,VALID,255,VALID,0.563281,
2012-05-13, 00:30:04,VALID,999.174,VALID,0,VALID,95.088,VALID,0,VALID,24.5599,VALID,262,VALID,1.3125,
2012-05-13, 00:31:04,VALID,999.24,VALID,0,VALID,95.1108,VALID,0,VALID,24.5599,VALID,232,VALID,1.20938,
2012-05-13, 00:32:04,VALID,999.239,VALID,0,VALID,95.1185,VALID,0,VALID,24.558,VALID,234,VALID,1.16992,
2012-05-13, 00:33:04,VALID,999.245,VALID,0,VALID,95.1566,VALID,0,VALID,24.5599,VALID,265,VALID,1.07383,
2012-05-13, 00:34:04,VALID,999.254,VALID,0,VALID,95.149,VALID,0,VALID,24.5599,VALID,275,VALID,2.20859,
2012-05-13, 00:35:04,VALID,999.252,VALID,0,VALID,95.1414,VALID,0,VALID,24.5404,VALID,273,VALID,2.41758,
2012-05-13, 00:36:04,VALID,999.252,VALID,0,VALID,95.0803,VALID,0,VALID,24.5404,VALID,274,VALID,2.32617,
2012-05-13, 00:37:04,VALID,999.257,VALID,0,VALID,94.9735,VALID,0,VALID,24.5404,VALID,266,VALID,1.93984,
2012-05-13, 00:38:04,VALID,999.262,VALID,0,VALID,94.9277,VALID,0,VALID,24.5404,VALID,229,VALID,1.43438,
2012-05-13, 00:39:04,VALID,999.245,VALID,0,VALID,94.8743,VALID,0,VALID,24.5404,VALID,270,VALID,1.37422,
2012-05-13, 00:40:04,VALID,999.249,VALID,0,VALID,94.8362,VALID,0,VALID,24.5404,VALID,237,VALID,1.30898,
2012-05-13, 00:41:04,VALID,999.264,VALID,0,VALID,94.7599,VALID,0,VALID,24.48,VALID,250,VALID,1.13984,
2012-05-13, 00:42:04,VALID,999.255,VALID,0,VALID,94.6531,VALID,0,VALID,24.4818,VALID,245,VALID,4.55273,
2012-05-13, 00:43:04,VALID,999.298,VALID,0,VALID,94.4852,VALID,0,VALID,24.4604,VALID,232,VALID,1.99219,
2012-05-13, 00:44:04,VALID,999.318,VALID,0,VALID,94.3784,VALID,0,VALID,24.4818,VALID,228,VALID,3.09414,
2012-05-13, 00:45:04,VALID,999.386,VALID,0,VALID,94.3174,VALID,0,VALID,24.4818,VALID,263,VALID,1.51641,
2012-05-13, 00:46:04,VALID,999.408,VALID,0.5,VALID,94.3174,VALID,0,VALID,24.4409,VALID,252,VALID,1.64688,
2012-05-13, 00:47:04,VALID,999.428,VALID,0,VALID,94.3097,VALID,0,VALID,24.4233,VALID,225,VALID,1.44375,
2012-05-13, 00:48:04,VALID,999.421,VALID,0,VALID,94.3403,VALID,0,VALID,24.3824,VALID,263,VALID,1.17891,
2012-05-13, 00:49:04,VALID,999.461,VALID,0,VALID,94.4318,VALID,0,VALID,24.3647,VALID,238,VALID,1.35547,
2012-05-13, 00:50:04,VALID,999.536,VALID,0,VALID,94.531,VALID,0,VALID,24.3647,VALID,262,VALID,0.871094,
2012-05-13, 00:51:04,VALID,999.506,VALID,0.5,VALID,94.6683,VALID,0,VALID,24.3647,VALID,268,VALID,0.570703,
2012-05-13, 00:52:04,VALID,999.483,VALID,0,VALID,94.7675,VALID,0,VALID,24.3452,VALID,271,VALID,0.421094,
2012-05-13, 00:53:04,VALID,999.49,VALID,0,VALID,94.8591,VALID,0,VALID,24.3043,VALID,327,VALID,0.926172,
2012-05-13, 00:54:04,VALID,999.481,VALID,0.5,VALID,94.9125,VALID,0,VALID,24.2866,VALID,356,VALID,0.707422,
2012-05-13, 00:55:04,VALID,999.49,VALID,0,VALID,94.9735,VALID,0,VALID,24.2671,VALID,356,VALID,0.0628906,
2012-05-13, 00:56:04,VALID,999.478,VALID,0,VALID,95.0269,VALID,0,VALID,24.2281,VALID,51,VALID,0.796875,
2012-05-13, 00:57:04,VALID,999.472,VALID,0,VALID,95.0269,VALID,0,VALID,24.1891,VALID,303,VALID,0.736328,
2012-05-13, 00:58:04,VALID,999.517,VALID,0,VALID,95.0422,VALID,0,VALID,24.15,VALID,306,VALID,1.36563,
2012-05-13, 00:59:04,VALID,999.517,VALID,0,VALID,95.0422,VALID,0,VALID,24.1305,VALID,360,VALID,0.949219,
2012-05-13, 01:00:04,VALID,999.574,VALID,0,VALID,94.7141,VALID,0,VALID,23.9744,VALID,22,VALID,2.62891,
2012-05-13, 01:01:04,VALID,999.553,VALID,0,VALID,94.1877,VALID,0,VALID,23.9354,VALID,11,VALID,3.69492,
2012-05-13, 01:02:04,VALID,999.618,VALID,0,VALID,93.4781,VALID,0,VALID,23.8768,VALID,343,VALID,2.35156,
2012-05-13, 01:03:04,VALID,999.663,VALID,0,VALID,93.7833,VALID,0,VALID,23.8945,VALID,342,VALID,2.26094,
2012-05-13, 01:04:04,VALID,999.61,VALID,0,VALID,93.7757,VALID,0.104696,VALID,23.8555,VALID,347,VALID,2.34609,
2012-05-13, 01:05:04,VALID,999.56,VALID,0,VALID,93.4552,VALID,0.104696,VALID,23.7579,VALID,354,VALID,2.35156,
2012-05-13, 01:06:04,VALID,999.58,VALID,0,VALID,93.0814,VALID,0.104696,VALID,23.6799,VALID,349,VALID,3.1207,
2012-05-13, 01:07:04,VALID,999.568,VALID,0,VALID,92.4176,VALID,0,VALID,23.5823,VALID,353,VALID,2.38984,
2012-05-13, 01:08:04,VALID,999.515,VALID,0,VALID,91.5554,VALID,0,VALID,23.4263,VALID,348,VALID,2.19102,
2012-05-13, 01:09:04,VALID,999.514,VALID,0,VALID,91.9522,VALID,0,VALID,23.3482,VALID,331,VALID,1.74102,
2012-05-13, 01:10:04,VALID,999.473,VALID,0,VALID,92.5168,VALID,0.104696,VALID,23.2507,VALID,328,VALID,1.30313,
2012-05-13, 01:11:04,VALID,999.474,VALID,0,VALID,92.738,VALID,0.104696,VALID,23.0929,VALID,356,VALID,1.20234,
2012-05-13, 01:12:04,VALID,999.43,VALID,0,VALID,93.0432,VALID,0.104696,VALID,23.0166,VALID,9,VALID,1.34258,
2012-05-13, 01:13:04,VALID,999.423,VALID,0,VALID,92.6388,VALID,0.104696,VALID,22.88,VALID,24,VALID,1.46211,
2012-05-13, 01:14:04,VALID,999.401,VALID,0,VALID,92.9593,VALID,0.104696,VALID,22.8215,VALID,34,VALID,1.14219,
2012-05-13, 01:15:04,VALID,999.448,VALID,0,VALID,93.0966,VALID,0,VALID,22.7435,VALID,10,VALID,1.28906,
2012-05-13, 01:16:04,VALID,999.452,VALID,0,VALID,93.3179,VALID,0.104696,VALID,22.7027,VALID,17,VALID,1.38164,
2012-05-13, 01:17:04,VALID,999.472,VALID,0,VALID,93.7757,VALID,0.104696,VALID,22.7223,VALID,14,VALID,1.58008,
2012-05-13, 01:18:04,VALID,999.503,VALID,0,VALID,93.974,VALID,0,VALID,22.7647,VALID,15,VALID,1.3668,
2012-05-13, 01:19:04,VALID,999.486,VALID,0,VALID,94.058,VALID,0,VALID,22.7647,VALID,15,VALID,2.20547,
2012-05-13, 01:20:04,VALID,999.435,VALID,0,VALID,94.2411,VALID,0,VALID,22.7825,VALID,18,VALID,2.0918,
2012-05-13, 01:21:04,VALID,999.41,VALID,0,VALID,94.47,VALID,0,VALID,22.8232,VALID,42,VALID,1.76055,
2012-05-13, 01:22:04,VALID,999.346,VALID,0,VALID,94.592,VALID,0,VALID,22.802,VALID,46,VALID,1.48438,
2012-05-13, 01:23:04,VALID,999.33,VALID,0,VALID,94.6607,VALID,0,VALID,22.7842,VALID,49,VALID,1.25781,
2012-05-13, 01:24:04,VALID,999.254,VALID,0,VALID,94.7141,VALID,0,VALID,22.7452,VALID,49,VALID,0.992578,
2012-05-13, 01:25:04,VALID,999.235,VALID,0,VALID,94.5997,VALID,0,VALID,22.6867,VALID,56,VALID,1.44336,
2012-05-13, 01:26:04,VALID,999.236,VALID,0,VALID,94.6378,VALID,0,VALID,22.6282,VALID,60,VALID,0.610156,
2012-05-13, 01:27:04,VALID,999.205,VALID,0,VALID,94.7217,VALID,0,VALID,22.6087,VALID,60,VALID,0.203125,
2012-05-13, 01:28:04,VALID,999.252,VALID,0,VALID,94.8438,VALID,0,VALID,22.5696,VALID,60,VALID,0,
2012-05-13, 01:29:04,VALID,999.236,VALID,0,VALID,94.943,VALID,0,VALID,22.5306,VALID,60,VALID,0,
2012-05-13, 01:30:04,VALID,999.274,VALID,0,VALID,95.0193,VALID,0,VALID,22.4916,VALID,60,VALID,0,
2012-05-13, 01:31:04,VALID,999.282,VALID,0,VALID,95.0727,VALID,0,VALID,22.4916,VALID,60,VALID,0,
2012-05-13, 01:32:04,VALID,999.325,VALID,0,VALID,95.1643,VALID,0,VALID,22.4721,VALID,60,VALID,0.176953,
2012-05-13, 01:33:04,VALID,999.368,VALID,0,VALID,95.2177,VALID,0,VALID,22.4526,VALID,81,VALID,0.906641,
2012-05-13, 01:34:04,VALID,999.409,VALID,0,VALID,95.2329,VALID,0,VALID,22.4916,VALID,94,VALID,1.12305,
2012-05-13, 01:35:04,VALID,999.466,VALID,0,VALID,95.2787,VALID,0,VALID,22.5501,VALID,92,VALID,1.08281,
2012-05-13, 01:36:04,VALID,999.505,VALID,0,VALID,95.3321,VALID,0,VALID,22.5892,VALID,85,VALID,1.2543,
2012-05-13, 01:37:04,VALID,999.548,VALID,0,VALID,95.3703,VALID,0,VALID,22.6087,VALID,87,VALID,1.06797,
2012-05-13, 01:38:04,VALID,999.559,VALID,0,VALID,95.4008,VALID,0,VALID,22.6282,VALID,88,VALID,0.821484,
2012-05-13, 01:39:04,VALID,999.552,VALID,0,VALID,95.4237,VALID,0,VALID,22.6282,VALID,99,VALID,1.36484,
2012-05-13, 01:40:04,VALID,999.522,VALID,0,VALID,95.4084,VALID,0,VALID,22.6282,VALID,100,VALID,1.4293,
2012-05-13, 01:41:04,VALID,999.503,VALID,0,VALID,95.3779,VALID,0,VALID,22.6264,VALID,99,VALID,1.35625,
2012-05-13, 01:42:04,VALID,999.476,VALID,0,VALID,95.3779,VALID,0,VALID,22.6477,VALID,81,VALID,1.3457,
2012-05-13, 01:43:04,VALID,999.449,VALID,0,VALID,95.3703,VALID,0,VALID,22.6672,VALID,81,VALID,1.19687,
2012-05-13, 01:44:04,VALID,999.431,VALID,0,VALID,95.3626,VALID,0,VALID,22.6282,VALID,63,VALID,1.23164,
2012-05-13, 01:45:04,VALID,999.429,VALID,0,VALID,95.3626,VALID,0,VALID,22.6087,VALID,65,VALID,0.773828,
2012-05-13, 01:46:04,VALID,999.406,VALID,0,VALID,95.3397,VALID,0,VALID,22.5679,VALID,48,VALID,0.875,
2012-05-13, 01:47:04,VALID,999.359,VALID,0,VALID,95.355,VALID,0,VALID,22.5501,VALID,49,VALID,0.515234,
2012-05-13, 01:48:04,VALID,999.35,VALID,0,VALID,95.3245,VALID,0,VALID,22.5289,VALID,49,VALID,0.434375,
2012-05-13, 01:49:04,VALID,999.309,VALID,0,VALID,95.3245,VALID,0,VALID,22.5306,VALID,49,VALID,0.509766,
2012-05-13, 01:50:04,VALID,999.264,VALID,0,VALID,95.3245,VALID,0,VALID,22.4704,VALID,83,VALID,0.860156,
2012-05-13, 01:51:04,VALID,999.209,VALID,0,VALID,95.294,VALID,0,VALID,22.4899,VALID,84,VALID,1.19766,
2012-05-13, 01:52:04,VALID,999.189,VALID,0,VALID,95.2863,VALID,0,VALID,22.5111,VALID,91,VALID,1.12344,
2012-05-13, 01:53:04,VALID,999.19,VALID,0.5,VALID,95.2482,VALID,0,VALID,22.5306,VALID,97,VALID,0.953516,
2012-05-13, 01:54:04,VALID,999.144,VALID,0,VALID,95.2863,VALID,0,VALID,22.5501,VALID,109,VALID,1.30898,
2012-05-13, 01:55:04,VALID,999.211,VALID,0,VALID,95.2634,VALID,0,VALID,22.5501,VALID,112,VALID,1.31797,
2012-05-13, 01:56:04,VALID,999.217,VALID,0,VALID,95.294,VALID,0,VALID,22.5501,VALID,113,VALID,1.63789,
2012-05-13, 01:57:04,VALID,999.257,VALID,0,VALID,95.3016,VALID,0,VALID,22.5892,VALID,114,VALID,1.4,
2012-05-13, 01:58:04,VALID,999.291,VALID,0,VALID,95.3474,VALID,0,VALID,22.6087,VALID,110,VALID,1.55234,
2012-05-13, 01:59:04,VALID,999.314,VALID,0,VALID,95.3321,VALID,0,VALID,22.5696,VALID,108,VALID,1.91289,
2012-05-13, 02:00:04,VALID,999.336,VALID,0,VALID,95.3092,VALID,0,VALID,22.5696,VALID,114,VALID,1.81992,
2012-05-13, 02:01:05,VALID,999.378,VALID,0,VALID,95.294,VALID,0,VALID,22.5892,VALID,109,VALID,1.66094,
2012-05-13, 02:02:05,VALID,999.354,VALID,0,VALID,95.2711,VALID,0,VALID,22.5892,VALID,115,VALID,2.69883,
2012-05-13, 02:03:05,VALID,999.401,VALID,0,VALID,95.2405,VALID,0,VALID,22.5892,VALID,119,VALID,1.95508,
2012-05-13, 02:04:05,VALID,999.414,VALID,0,VALID,95.1795,VALID,0,VALID,22.5892,VALID,110,VALID,1.86367,
2012-05-13, 02:05:05,VALID,999.385,VALID,0,VALID,95.1643,VALID,0,VALID,22.6087,VALID,127,VALID,1.6918,
2012-05-13, 02:06:05,VALID,999.346,VALID,0,VALID,95.1414,VALID,0,VALID,22.5892,VALID,114,VALID,1.7707,
2012-05-13, 02:07:05,VALID,999.332,VALID,0,VALID,95.0651,VALID,0,VALID,22.5696,VALID,116,VALID,2.43672,
2012-05-13, 02:08:05,VALID,999.279,VALID,0,VALID,94.9354,VALID,0,VALID,22.5892,VALID,117,VALID,1.8375,
2012-05-13, 02:09:05,VALID,999.256,VALID,0,VALID,94.8896,VALID,0,VALID,22.5892,VALID,113,VALID,1.41992,
2012-05-13, 02:10:05,VALID,999.28,VALID,0.5,VALID,94.8667,VALID,0,VALID,22.6087,VALID,116,VALID,1.40156,
2012-05-13, 02:11:05,VALID,999.284,VALID,0,VALID,94.8514,VALID,0,VALID,22.5892,VALID,115,VALID,0.664453,
2012-05-13, 02:12:05,VALID,999.294,VALID,0,VALID,94.8896,VALID,0,VALID,22.5696,VALID,109,VALID,0.74375,
2012-05-13, 02:13:05,VALID,999.321,VALID,0,VALID,94.9506,VALID,0,VALID,22.5696,VALID,104,VALID,0.369922,
2012-05-13, 02:14:05,VALID,999.338,VALID,0,VALID,95.004,VALID,0,VALID,22.5306,VALID,80,VALID,0.432422,
2012-05-13, 02:15:05,VALID,999.364,VALID,0,VALID,94.9964,VALID,0,VALID,22.5111,VALID,348,VALID,0.946875,
2012-05-13, 02:16:05,VALID,999.406,VALID,0,VALID,95.0269,VALID,0,VALID,22.4916,VALID,348,VALID,0.873047,
2012-05-13, 02:17:05,VALID,999.426,VALID,0,VALID,95.0498,VALID,0,VALID,22.4721,VALID,348,VALID,1.09258,
2012-05-13, 02:18:05,VALID,999.484,VALID,0,VALID,95.0956,VALID,0,VALID,22.4721,VALID,346,VALID,1.10234,
2012-05-13, 02:19:05,VALID,999.479,VALID,0,VALID,95.1414,VALID,0,VALID,22.4721,VALID,346,VALID,0.957422,
2012-05-13, 02:20:05,VALID,999.502,VALID,0.5,VALID,95.2024,VALID,0,VALID,22.4526,VALID,347,VALID,0.817969,
2012-05-13, 02:21:05,VALID,999.488,VALID,0,VALID,95.2329,VALID,0,VALID,22.4331,VALID,357,VALID,0.715625,
2012-05-13, 02:22:05,VALID,999.518,VALID,0,VALID,95.2787,VALID,0,VALID,22.4331,VALID,357,VALID,0.767969,
2012-05-13, 02:23:05,VALID,999.488,VALID,0,VALID,95.294,VALID,0,VALID,22.4136,VALID,22,VALID,0.634375,
2012-05-13, 02:24:05,VALID,999.524,VALID,0,VALID,95.3321,VALID,0,VALID,22.3924,VALID,22,VALID,0.332031,
2012-05-13, 02:25:05,VALID,999.533,VALID,0,VALID,95.3703,VALID,0,VALID,22.3941,VALID,22,VALID,0,
2012-05-13, 02:26:05,VALID,999.552,VALID,0,VALID,95.4084,VALID,0,VALID,22.3941,VALID,22,VALID,0.00429688,
2012-05-13, 02:27:05,VALID,999.555,VALID,0,VALID,95.4389,VALID,0,VALID,22.3941,VALID,22,VALID,0.173828,
2012-05-13, 02:28:05,VALID,999.574,VALID,0,VALID,95.4618,VALID,0,VALID,22.3729,VALID,22,VALID,0.353906,
2012-05-13, 02:29:05,VALID,999.618,VALID,0,VALID,95.4923,VALID,0,VALID,22.3941,VALID,22,VALID,0.50625,
2012-05-13, 02:30:05,VALID,999.629,VALID,0,VALID,95.5305,VALID,0,VALID,22.3941,VALID,22,VALID,0.623438,
2012-05-13, 02:31:05,VALID,999.65,VALID,0,VALID,95.561,VALID,0,VALID,22.3941,VALID,22,VALID,0.599219,
2012-05-13, 02:32:05,VALID,999.664,VALID,0,VALID,95.5686,VALID,0,VALID,22.4331,VALID,10,VALID,0.769141,
2012-05-13, 02:33:05,VALID,999.66,VALID,0,VALID,95.5839,VALID,0,VALID,22.4136,VALID,10,VALID,0.856641,
2012-05-13, 02:34:05,VALID,999.706,VALID,0,VALID,95.6144,VALID,0,VALID,22.4331,VALID,10,VALID,0.827344,
2012-05-13, 02:35:05,VALID,999.679,VALID,0,VALID,95.6068,VALID,0,VALID,22.4331,VALID,12,VALID,0.717969,
2012-05-13, 02:36:05,VALID,999.661,VALID,0,VALID,95.5915,VALID,0,VALID,22.4314,VALID,12,VALID,0.485156,
2012-05-13, 02:37:05,VALID,999.692,VALID,0,VALID,95.6373,VALID,0,VALID,22.4331,VALID,12,VALID,0.492578,
2012-05-13, 02:38:05,VALID,999.716,VALID,0,VALID,95.6297,VALID,0,VALID,22.4331,VALID,12,VALID,0.25625,
2012-05-13, 02:39:05,VALID,999.692,VALID,0,VALID,95.6297,VALID,0,VALID,22.4314,VALID,12,VALID,0.219141,
2012-05-13, 02:40:05,VALID,999.669,VALID,0.5,VALID,95.6602,VALID,0,VALID,22.4509,VALID,12,VALID,0.575781,
2012-05-13, 02:41:05,VALID,999.636,VALID,0,VALID,95.6678,VALID,0,VALID,22.4526,VALID,12,VALID,0.0898438,
2012-05-13, 02:42:05,VALID,999.618,VALID,0,VALID,95.6983,VALID,0,VALID,22.4721,VALID,12,VALID,0.299219,
2012-05-13, 02:43:05,VALID,999.619,VALID,0,VALID,95.6754,VALID,0,VALID,22.4526,VALID,12,VALID,0,
2012-05-13, 02:44:05,VALID,999.628,VALID,0,VALID,95.6754,VALID,0,VALID,22.4526,VALID,12,VALID,0,
2012-05-13, 02:45:05,VALID,999.612,VALID,0,VALID,95.6831,VALID,0,VALID,22.4721,VALID,12,VALID,0,
2012-05-13, 02:46:05,VALID,999.584,VALID,0,VALID,95.6983,VALID,0,VALID,22.4916,VALID,12,VALID,0,
2012-05-13, 02:47:05,VALID,999.548,VALID,0,VALID,95.6831,VALID,0,VALID,22.4916,VALID,12,VALID,0,
2012-05-13, 02:48:05,VALID,999.561,VALID,0,VALID,95.6983,VALID,0,VALID,22.4704,VALID,12,VALID,0.444531,
2012-05-13, 02:49:05,VALID,999.547,VALID,0,VALID,95.6907,VALID,0,VALID,22.5111,VALID,12,VALID,0.378906,
2012-05-13, 02:50:05,VALID,999.541,VALID,0,VALID,95.6983,VALID,0,VALID,22.5306,VALID,12,VALID,0.490625,
2012-05-13, 02:51:05,VALID,999.537,VALID,0,VALID,95.6907,VALID,0,VALID,22.5501,VALID,12,VALID,0.449609,
2012-05-13, 02:52:05,VALID,999.55,VALID,0,VALID,95.7136,VALID,0,VALID,22.5892,VALID,24,VALID,0.634375,
2012-05-13, 02:53:05,VALID,999.537,VALID,0,VALID,95.6907,VALID,0,VALID,22.5892,VALID,84,VALID,0.989453,
2012-05-13, 02:54:05,VALID,999.543,VALID,0,VALID,95.7136,VALID,0,VALID,22.6087,VALID,84,VALID,0.900391,
2012-05-13, 02:55:05,VALID,999.567,VALID,0,VALID,95.6983,VALID,0,VALID,22.6087,VALID,84,VALID,1.01367,
2012-05-13, 02:56:05,VALID,999.601,VALID,0.5,VALID,95.7136,VALID,0,VALID,22.6282,VALID,83,VALID,0.926562,
2012-05-13, 02:57:05,VALID,999.554,VALID,0,VALID,95.7136,VALID,0,VALID,22.6477,VALID,76,VALID,0.867188,
2012-05-13, 02:58:05,VALID,999.552,VALID,0,VALID,95.7212,VALID,0,VALID,22.6282,VALID,77,VALID,1.03437,
2012-05-13, 02:59:05,VALID,999.51,VALID,0,VALID,95.6983,VALID,0,VALID,22.6477,VALID,76,VALID,1.07656,
2012-05-13, 03:00:05,VALID,999.49,VALID,0,VALID,95.6983,VALID,0,VALID,22.6672,VALID,76,VALID,1.10195,
2012-05-13, 03:01:05,VALID,999.489,VALID,0,VALID,95.706,VALID,0,VALID,22.6477,VALID,76,VALID,0.965625,
2012-05-13, 03:02:05,VALID,999.478,VALID,0,VALID,95.706,VALID,0,VALID,22.6069,VALID,76,VALID,0.675781,
2012-05-13, 03:03:05,VALID,999.476,VALID,0,VALID,95.706,VALID,0,VALID,22.6282,VALID,76,VALID,0.767578,
2012-05-13, 03:04:05,VALID,999.434,VALID,0,VALID,95.7212,VALID,0,VALID,22.5874,VALID,55,VALID,1.35625,
2012-05-13, 03:05:05,VALID,999.42,VALID,0.5,VALID,95.7212,VALID,0,VALID,22.6087,VALID,68,VALID,1.25,
2012-05-13, 03:06:05,VALID,999.398,VALID,0,VALID,95.6983,VALID,0,VALID,22.6299,VALID,78,VALID,0.983203,
2012-05-13, 03:07:05,VALID,999.361,VALID,0,VALID,95.6907,VALID,0,VALID,22.6282,VALID,86,VALID,0.976172,
2012-05-13, 03:08:05,VALID,999.316,VALID,0,VALID,95.706,VALID,0,VALID,22.6282,VALID,95,VALID,1.18945,
2012-05-13, 03:09:05,VALID,999.33,VALID,0,VALID,95.6907,VALID,0,VALID,22.6282,VALID,92,VALID,0.951563,
2012-05-13, 03:10:05,VALID,999.311,VALID,0,VALID,95.7136,VALID,0,VALID,22.6282,VALID,99,VALID,1.0125,
2012-05-13, 03:11:05,VALID,999.31,VALID,0,VALID,95.706,VALID,0,VALID,22.6689,VALID,100,VALID,0.581641,
2012-05-13, 03:12:05,VALID,999.296,VALID,0,VALID,95.6983,VALID,0,VALID,22.6477,VALID,100,VALID,0.477344,
2012-05-13, 03:13:05,VALID,999.274,VALID,0,VALID,95.6983,VALID,0,VALID,22.646,VALID,100,VALID,0.436719,
2012-05-13, 03:14:05,VALID,999.278,VALID,0,VALID,95.706,VALID,0,VALID,22.6672,VALID,100,VALID,0.153906,
2012-05-13, 03:15:05,VALID,999.26,VALID,0,VALID,95.7212,VALID,0,VALID,22.6672,VALID,92,VALID,0.415234,
2012-05-13, 03:16:05,VALID,999.247,VALID,0,VALID,95.706,VALID,0,VALID,22.6477,VALID,92,VALID,0.500391,
2012-05-13, 03:17:05,VALID,999.24,VALID,0.5,VALID,95.6983,VALID,0,VALID,22.6672,VALID,92,VALID,0.461328,
2012-05-13, 03:18:05,VALID,999.22,VALID,0,VALID,95.706,VALID,0,VALID,22.6672,VALID,92,VALID,0.414453,
2012-05-13, 03:19:05,VALID,999.199,VALID,0,VALID,95.6983,VALID,0,VALID,22.6672,VALID,92,VALID,0.411328,
2012-05-13, 03:20:05,VALID,999.196,VALID,0,VALID,95.6983,VALID,0,VALID,22.6672,VALID,92,VALID,0.0121094,
2012-05-13, 03:21:05,VALID,999.183,VALID,0,VALID,95.6983,VALID,0,VALID,22.6477,VALID,92,VALID,0,
2012-05-13, 03:22:05,VALID,999.154,VALID,0,VALID,95.6983,VALID,0,VALID,22.6282,VALID,92,VALID,0,
2012-05-13, 03:23:05,VALID,999.144,VALID,0,VALID,95.7136,VALID,0,VALID,22.6282,VALID,92,VALID,0,
2012-05-13, 03:24:05,VALID,999.094,VALID,0,VALID,95.7212,VALID,0,VALID,22.6087,VALID,92,VALID,0,
2012-05-13, 03:25:05,VALID,999.105,VALID,0,VALID,95.6983,VALID,0,VALID,22.6282,VALID,92,VALID,0,
2012-05-13, 03:26:05,VALID,999.095,VALID,0,VALID,95.7136,VALID,0,VALID,22.6282,VALID,92,VALID,0,
2012-05-13, 03:27:05,VALID,999.087,VALID,0,VALID,95.706,VALID,0,VALID,22.6282,VALID,92,VALID,0,
2012-05-13, 03:28:05,VALID,999.1,VALID,0.5,VALID,95.706,VALID,0,VALID,22.6282,VALID,92,VALID,0.522656,
2012-05-13, 03:29:05,VALID,999.149,VALID,0,VALID,95.6678,VALID,0,VALID,22.6477,VALID,88,VALID,0.609766,
2012-05-13, 03:30:05,VALID,999.163,VALID,0,VALID,95.6678,VALID,0,VALID,22.6672,VALID,51,VALID,0.896094,
2012-05-13, 03:31:05,VALID,999.201,VALID,0,VALID,95.6754,VALID,0,VALID,22.6867,VALID,35,VALID,0.961719,
2012-05-13, 03:32:05,VALID,999.219,VALID,0,VALID,95.6602,VALID,0,VALID,22.7257,VALID,32,VALID,0.888672,
2012-05-13, 03:33:05,VALID,999.262,VALID,0,VALID,95.6678,VALID,0,VALID,22.7257,VALID,21,VALID,0.767578,
2012-05-13, 03:34:05,VALID,999.269,VALID,0,VALID,95.6754,VALID,0,VALID,22.7257,VALID,20,VALID,0.785156,
2012-05-13, 03:35:05,VALID,999.234,VALID,0,VALID,95.6831,VALID,0,VALID,22.7257,VALID,20,VALID,0.826172,
2012-05-13, 03:36:05,VALID,999.211,VALID,0,VALID,95.6907,VALID,0,VALID,22.7257,VALID,5,VALID,0.614062,
2012-05-13, 03:37:05,VALID,999.173,VALID,0,VALID,95.6754,VALID,0,VALID,22.7257,VALID,5,VALID,0.457812,
2012-05-13, 03:38:05,VALID,999.123,VALID,0.5,VALID,95.706,VALID,0,VALID,22.7062,VALID,26,VALID,0.659375,
2012-05-13, 03:39:05,VALID,999.14,VALID,0,VALID,95.706,VALID,0,VALID,22.6867,VALID,29,VALID,0.473437,
2012-05-13, 03:40:05,VALID,999.112,VALID,0,VALID,95.6983,VALID,0,VALID,22.6867,VALID,55,VALID,0.575781,
2012-05-13, 03:41:05,VALID,999.072,VALID,0,VALID,95.6831,VALID,0,VALID,22.6867,VALID,60,VALID,0.632813,
2012-05-13, 03:42:05,VALID,999.082,VALID,0,VALID,95.6831,VALID,0,VALID,22.7062,VALID,75,VALID,0.739453,
2012-05-13, 03:43:05,VALID,999.064,VALID,0,VALID,95.6602,VALID,0,VALID,22.7062,VALID,87,VALID,0.673828,
2012-05-13, 03:44:05,VALID,999.045,VALID,0,VALID,95.6831,VALID,0,VALID,22.7062,VALID,87,VALID,0.876953,
2012-05-13, 03:45:05,VALID,999.039,VALID,0,VALID,95.6831,VALID,0,VALID,22.7257,VALID,87,VALID,1.04375,
2012-05-13, 03:46:05,VALID,999.072,VALID,0,VALID,95.6678,VALID,0,VALID,22.7257,VALID,82,VALID,0.958594,